Weather History for Resolute, NU

Change the Weather History Date:

Wednesday, October 2, 2013

  Actual Average Record
Temperature  
Mean Temperature 11 °F -  
Max Temperature 16 °F 18 °F 28 °F (1998)
Min Temperature 6 °F 11 °F 5 °F (1997)
Degree Days  
Heating Degree Days 54    
Moisture  
Dew Point 10 °F    
Average Humidity 88    
Maximum Humidity 93    
Minimum Humidity 79    
Precipitation  
Precipitation 0.00 in - - ()
Sea Level Pressure  
Sea Level Pressure 30.21 in    
Wind  
Wind Speed 18 mph ()    
Max Wind Speed 31 mph    
Max Gust Speed 31 mph    
Visibility 11.5 miles    
Events Snow    
Averages and records for this station are not official NWS values.
T = Trace of Precipitation, MM = Missing Value Source: Averaged Metar Reports

Daily Weather History Graph

Daily Weather History Graph

Search for Another Location

Airport:

Trip Planner

Search our weather history database for the weather conditions in past years. The results will help you decide how hot, cold, wet, or windy it might be!

Date:

Astronomy

Oct. 02, 2013 Rise Set
Actual Time 7:51 AM CDT 6:23 PM CDT
Civil Twilight 6:32 AM CDT 7:42 PM CDT
Nautical Twilight 4:54 AM CDT 9:18 PM CDT
Astronomical Twilight 2:29 AM CDT 11:35 PM CDT
Moon 3:56 AM CDT (10/2) 6:00 PM CDT (10/2)
Length of Visible Light 13h 09m
Length of Day
10h 31m
Waning Crescent, 6% of the Moon is Illuminated
Oct 2
Waning Crescent
Oct 4
New
Oct 11
First Quarter
Oct 18
Full
Oct 26
Last Quarter

Hourly Weather History & Observations

Time (CDT) Temp. Windchill Dew Point Humidity Pressure Visibility Wind Dir Wind Speed Gust Speed Precip Events Conditions
12:00 AM 6.8 °F -12.4 °F 5.0 °F 92% 30.16 in 15.0 mi NNW 18.4 mph - N/A Snow Low Drifting Snow
1:00 AM 8 °F - 5 °F 82% 30.16 in 15 mi NNW 19.6 mph - - Snow Snow
1:00 AM 8.6 °F -10.5 °F 5.0 °F 85% 30.16 in 15.0 mi NNW 19.6 mph - N/A   Partly Cloudy
1:38 AM - - - N/A% - 10.0 mi NNW 18.4 mph - N/A   Unknown
2:00 AM 8.6 °F -9.5 °F 6.8 °F 92% 30.17 in 10.0 mi NNW 17.3 mph - N/A Snow Light Snow
3:00 AM 10.4 °F -7.7 °F 8.6 °F 92% 30.17 in 4.0 mi NW 18.4 mph - N/A Snow Light Snow
3:50 AM - - - N/A% - 10.0 mi NW 16.1 mph - N/A   Unknown
4:00 AM 12.2 °F -3.1 °F 8.6 °F 85% 30.19 in 10.0 mi NW 13.8 mph - N/A Snow Light Snow
5:00 AM 12.2 °F -5.3 °F 8.6 °F 85% 30.19 in 10.0 mi NNW 18.4 mph - N/A Snow Light Snow
6:00 AM 12.2 °F -7.5 °F 8.6 °F 85% 30.19 in 15.0 mi NNW 24.2 mph - N/A Snow Light Snow
7:00 AM 13 °F - 10 °F 81% 30.19 in 10 mi NNW 18.4 mph - - Snow Light Snow
7:00 AM 12.2 °F -5.3 °F 10.4 °F 92% 30.19 in 10.0 mi NNW 18.4 mph - N/A Snow Light Snow
8:00 AM 12.2 °F -6.7 °F 10.4 °F 92% 30.19 in 10.0 mi NNW 21.9 mph - N/A Snow Light Snow
9:00 AM 14.0 °F -3.4 °F 10.4 °F 86% 30.19 in 15.0 mi NNW 19.6 mph - N/A Snow Light Snow
10:00 AM 14.0 °F -3.4 °F 12.2 °F 93% 30.19 in 15.0 mi NNW 19.6 mph - N/A Snow Light Snow
11:00 AM 15.8 °F -3.4 °F 12.2 °F 86% 30.19 in 12.0 mi NNW 26.5 mph - N/A Snow Light Snow Grains
12:00 PM 15.8 °F -3.4 °F 14.0 °F 93% 30.19 in 10.0 mi NNW 26.5 mph - N/A Snow Light Snow
1:00 PM 16 °F - 13 °F 83% 30.20 in 12 mi NNW 31.1 mph - - Snow Light Snow
1:00 PM 15.8 °F -3.1 °F 14.0 °F 93% 30.20 in 12.0 mi NNW 25.3 mph 31.1 mph N/A Snow Light Snow
2:00 PM 15.8 °F -2.7 °F 14.0 °F 93% 30.21 in 8.0 mi NNW 24.2 mph 29.9 mph N/A Snow Light Snow
2:47 PM - - - N/A% - 8.0 mi NNW 21.9 mph 29.9 mph N/A   Unknown
3:00 PM 15.8 °F -2.7 °F 12.2 °F 86% 30.22 in 5.0 mi NNW 24.2 mph 31.1 mph N/A Snow Light Snow
4:00 PM 15.8 °F -2.7 °F 14.0 °F 93% 30.23 in 5.0 mi NNW 24.2 mph - N/A Snow Light Snow
4:35 PM - - - N/A% - 15.0 mi NNW 28.8 mph - N/A   Unknown
5:00 PM 15.8 °F -1.9 °F 12.2 °F 86% 30.24 in 15.0 mi NNW 21.9 mph 28.8 mph N/A Snow Light Snow
6:00 PM 14.0 °F -4.3 °F 8.6 °F 79% 30.25 in 15.0 mi NNW 21.9 mph - N/A   Partly Cloudy
7:00 PM 12 °F - 9 °F 81% 30.26 in 15 mi NNW 17.3 mph - -   Partly Cloudy
7:00 PM 12.2 °F -4.8 °F 8.6 °F 85% 30.26 in 15.0 mi NNW 17.3 mph - N/A   Mostly Cloudy
7:20 PM - - - N/A% - 4.0 mi NNW 25.3 mph - N/A   Mostly Cloudy
7:47 PM - - - N/A% - 10.0 mi NNW 20.7 mph - N/A   Unknown
8:00 PM 10.4 °F -8.6 °F 8.6 °F 92% 30.26 in 15.0 mi NNW 20.7 mph 26.5 mph N/A Snow Low Drifting Snow
9:00 PM 10.4 °F -9.1 °F 8.6 °F 92% 30.26 in 15.0 mi NNW 21.9 mph - N/A Snow Low Drifting Snow
10:00 PM 12.2 °F -6.3 °F 8.6 °F 85% 30.26 in 10.0 mi NNW 20.7 mph - N/A Snow Low Drifting Snow
11:00 PM 10.4 °F -8.2 °F 6.8 °F 85% 30.27 in 15.0 mi NNW 19.6 mph - N/A Snow Low Drifting Snow